[[{"header":{"parameterUnit":"m.s-1","parameterCategory":1,"la1":30.2991,"la2":30.254,"lo1":-89.0895,"lo2":-89.0444,"dy":0.0017,"dx":0.0017,"nx":28,"ny":28,"refTime":"2024-09-02T03:00:00:Z","depth":0,"parameterNumber":2,"parameterNumberName":"U-component_of_WINDS"},"data":[0,0,0,0,0,0,0,0,0,0,0,0,0,0,0,0,0,0,0,0,0,0,0,0,0,0,0,0,0,0,0,0,0,0,0,0,0,0,0,0,0,0,0,0,0,0,0,0,0,0,0,0,0,0,0,0,0,0,0.3804,0.3805,0,0.3906,0.3907,0.3908,0.3993,0.3994,0.3995,0.3996,0.4099,0.4101,0.4103,0,0,0,0,0,0,0,0,0,0,0,0,0,0.3684,0.3686,0.3804,0.3806,0.3807,0.3906,0.3907,0.3908,0.3993,0.3994,0.3995,0.3996,0.4098,0.41,0.4103,0,0,0,0,0,0,0,0,0,0,0,0,0,0.3756,0.3686,0.3804,0.3861,0.3867,0.3905,0.3907,0.3909,0.3993,0.3994,0.3995,0.3997,0.4097,0.41,0.4103,0.4093,0,0,0.4112,0.4113,0,0,0,0,0,0,0,0,0.3752,0.376,0.3851,0.3857,0.3864,0.3938,0.3903,0.397,0.3992,0.3945,0.3996,0.3997,0.4044,0.4052,0.4068,0.4098,0.4102,0.4112,0.4114,0.4115,0.4116,0,0,0,0,0,0,0,0.3747,0.3756,0.3844,0.3852,0.386,0.3882,0.3893,0.3916,0.3986,0.3949,0.3956,0.3966,0.4048,0.4065,0.4071,0.4104,0.4112,0.4114,0.4116,0.4117,0.4132,0.4131,0,0,0,0,0,0,0.3733,0.3752,0.3841,0.3848,0.381,0.3883,0.3896,0.3913,0.3986,0.3998,0.3965,0.397,0.4059,0.4067,0.4074,0.4068,0.4115,0.4117,0.4119,0.4133,0.4132,0.413,0,0,0,0,0,0,0.373,0.374,0.3837,0.3801,0.3815,0.3883,0.3902,0.3914,0.3931,0.3998,0.4011,0.3969,0.406,0.407,0.4088,0.4072,0.4119,0.4121,0.4135,0.4133,0.4131,0.4053,0,0,0,0,0,0,0.3726,0.3739,0.3735,0.3801,0.3817,0.3848,0.3901,0.3915,0.3936,0.3943,0.4005,0.4016,0.4062,0.4083,0.4091,0.4077,0.4124,0.4136,0.4134,0.4131,0.4057,0.4049,0.4041,0,0,0,0,0,0.3722,0.3709,0.3734,0.3745,0.3814,0.3847,0.3857,0.391,0.3934,0.3931,0.3975,0.4015,0.4073,0.4084,0.4093,0.408,0.4138,0.4134,0.4132,0.4061,0.405,0.4041,0,0,0,0,0,0,0.3639,0.3718,0.3748,0.3756,0.3794,0.3861,0.3859,0.3897,0.3929,0.3934,0.3999,0.4012,0.4023,0.4054,0.4065,0.4075,0.4111,0.4109,0.4054,0.4044,0.4036,0.4028,0.4126,0,0,0,0,0,0.3621,0.3642,0.371,0.3711,0.3729,0.3791,0.3807,0.3845,0.3887,0.3904,0.3948,0.3988,0.4016,0.4032,0.4061,0.4063,0.4078,0.4059,0.4051,0.4044,0.4041,0.4045,0.4037,0.412,0.412,0.4121,0,0,0.3586,0.3632,0.364,0.3695,0.373,0.3749,0.3804,0.3822,0.3837,0.3907,0.3926,0.396,0.4009,0.4018,0.4025,0.4044,0.4022,0.404,0.4034,0.4035,0.4041,0.4033,0.4026,0.4118,0.4119,0.4119,0,0,0.353,0.3567,0.3572,0.3606,0.3657,0.3699,0.37,0.3762,0.3788,0.3808,0.3861,0.3881,0.3926,0.3959,0.3981,0.3941,0.3979,0.3948,0.3906,0.3909,0.3902,0.3897,0.3881,0.3875,0.3946,0.3946,0.3946,0,0.3479,0.3511,0.3569,0.3585,0.3607,0.3673,0.3678,0.3708,0.3766,0.378,0.3802,0.3861,0.3899,0.3917,0.3907,0.3924,0.3927,0.3941,0.3898,0.3894,0.3889,0.3876,0.387,0.3942,0.3942,0.3943,0.3943,0,0.3445,0.3466,0.3464,0.3519,0.3542,0.3552,0.3612,0.3629,0.3665,0.3705,0.3725,0.3773,0.3812,0.382,0.3856,0.3844,0.3854,0.3886,0.3923,0.3876,0.3864,0.386,0.3936,0.3938,0.3939,0.394,0,0,0.3337,0.3427,0.3424,0.3451,0.3513,0.3531,0.3545,0.3585,0.3597,0.3636,0.3648,0.3687,0.3717,0.3743,0.3783,0.3786,0.375,0.3818,0.382,0.3803,0.374,0.3714,0.3707,0.3777,0.3776,0.3776,0.3736,0,0.3291,0.3319,0.3373,0.3384,0.3405,0.3468,0.348,0.352,0.3558,0.3581,0.3623,0.3649,0.3688,0.3704,0.3709,0.3753,0.3738,0.3757,0.3789,0.3789,0.3773,0.3701,0.3674,0.3634,0.3731,0.3731,0.373,0,0.324,0.3276,0.3288,0.3351,0.3362,0.3371,0.3412,0.3434,0.3481,0.3509,0.3538,0.3583,0.3601,0.3636,0.3663,0.3674,0.3691,0.3715,0.3715,0.3718,0.3755,0.3701,0.3622,0.3615,0.3724,0.3724,0.3725,0,0.3159,0.321,0.3225,0.3245,0.3319,0.3324,0.3355,0.3404,0.3425,0.3461,0.3475,0.3513,0.3533,0.3562,0.3616,0.3637,0.3636,0.3676,0.3659,0.3657,0.3654,0.3653,0.3575,0.3667,0.3667,0.3668,0.3668,0,0.3101,0.3106,0.319,0.3198,0.3206,0.3269,0.3275,0.3312,0.3355,0.3372,0.343,0.3445,0.3516,0.354,0.3582,0.3597,0.3606,0.3629,0.364,0.3623,0.362,0.3633,0.3637,0.3666,0.3666,0.3667,0.3667,0,0.3011,0.3067,0.3087,0.3155,0.3173,0.3176,0.3234,0.3245,0.3288,0.3309,0.3317,0.3383,0.3414,0.3472,0.3518,0.3547,0.3552,0.3573,0.3536,0.3543,0.3522,0.3523,0.3448,0.3441,0.3539,0.3538,0.3537,0,0.2969,0.2974,0.3044,0.306,0.3088,0.3113,0.3135,0.3198,0.3218,0.3274,0.3278,0.3313,0.3345,0.3391,0.3443,0.3479,0.35,0.3471,0.3505,0.3488,0.3498,0.3496,0.3497,0.3463,0.3461,0.346,0.3459,0,0.2888,0.2916,0.2945,0.2985,0.3009,0.3043,0.308,0.309,0.3162,0.3182,0.3214,0.3238,0.3287,0.3321,0.3365,0.3398,0.344,0.3449,0.3447,0.3428,0.3406,0.3417,0.3513,0.3449,0.345,0.3451,0.3452,0.3452,0.282,0.2828,0.2878,0.2909,0.2944,0.2978,0.2992,0.3036,0.3064,0.3108,0.3145,0.3174,0.3223,0.3287,0.3317,0.3341,0.3361,0.3358,0.3357,0.3355,0.3347,0.3404,0.3349,0.335,0.335,0.335,0.3351,0,0.2741,0.2778,0.2806,0.2856,0.288,0.292,0.2963,0.2981,0.3006,0.3048,0.3078,0.3116,0.315,0.3205,0.3244,0.3253,0.3273,0.3261,0.326,0.3266,0.3328,0.3325,0.3243,0.3243,0.3243,0.3243,0.3243,0.3243,0.2703,0.2719,0.2753,0.2787,0.2823,0.2852,0.2874,0.2905,0.2939,0.2978,0.3007,0.3044,0.3092,0.3135,0.3168,0.3184,0.3194,0.3175,0.3197,0.3252,0.3262,0.3272,0.3269,0.3178,0.3177,0.3134,0.3133,0.3133]},{"header":{"parameterUnit":"m.s-1","parameterCategory":1,"la1":30.2991,"la2":30.254,"lo1":-89.0895,"lo2":-89.0444,"dy":0.0017,"dx":0.0017,"nx":28,"ny":28,"refTime":"2024-09-02T03:00:00:Z","depth":0,"parameterNumber":3,"parameterNumberName":"V-component_of_WINDS"},"data":[0,0,0,0,0,0,0,0,0,0,0,0,0,0,0,0,0,0,0,0,0,0,0,0,0,0,0,0,0,0,0,0,0,0,0,0,0,0,0,0,0,0,0,0,0,0,0,0,0,0,0,0,0,0,0,0,0,0,-1.5769,-1.577,0,-1.5869,-1.587,-1.5871,-1.5901,-1.59,-1.59,-1.59,-1.6,-1.6003,-1.6006,0,0,0,0,0,0,0,0,0,0,0,0,0,-1.5605,-1.5608,-1.5769,-1.577,-1.5772,-1.5868,-1.587,-1.5871,-1.5901,-1.59,-1.59,-1.5899,-1.5999,-1.6003,-1.6007,0,0,0,0,0,0,0,0,0,0,0,0,0,-1.5687,-1.5609,-1.5769,-1.5798,-1.5802,-1.5868,-1.587,-1.5871,-1.5901,-1.59,-1.59,-1.5899,-1.5998,-1.6003,-1.6007,-1.6051,0,0,-1.6022,-1.6024,0,0,0,0,0,0,0,0,-1.5683,-1.5693,-1.5793,-1.5796,-1.5801,-1.5872,-1.5849,-1.5932,-1.5901,-1.5863,-1.59,-1.5899,-1.5958,-1.5966,-1.5986,-1.6056,-1.606,-1.6022,-1.6025,-1.6027,-1.6028,0,0,0,0,0,0,0,-1.5677,-1.5689,-1.5808,-1.5794,-1.5799,-1.5806,-1.5817,-1.5865,-1.5914,-1.5867,-1.5869,-1.5881,-1.596,-1.5982,-1.5989,-1.6062,-1.6022,-1.6026,-1.6029,-1.6031,-1.6172,-1.6173,0,0,0,0,0,0,-1.5666,-1.5684,-1.5805,-1.5811,-1.5739,-1.581,-1.5822,-1.585,-1.5913,-1.5922,-1.5881,-1.5882,-1.5974,-1.5983,-1.5992,-1.6048,-1.6027,-1.6031,-1.6034,-1.6171,-1.6173,-1.6174,0,0,0,0,0,0,-1.5663,-1.5677,-1.5801,-1.5749,-1.5765,-1.5814,-1.5844,-1.5852,-1.5874,-1.5924,-1.5933,-1.5894,-1.5974,-1.5986,-1.6036,-1.6052,-1.6033,-1.6038,-1.617,-1.6172,-1.6173,-1.6159,0,0,0,0,0,0,-1.5658,-1.5675,-1.5693,-1.5749,-1.5768,-1.5844,-1.5845,-1.5854,-1.5882,-1.5883,-1.5939,-1.5947,-1.5974,-1.6029,-1.6041,-1.6058,-1.6041,-1.6169,-1.6171,-1.6173,-1.6158,-1.616,-1.6161,0,0,0,0,0,-1.5652,-1.5684,-1.5693,-1.5708,-1.579,-1.5844,-1.5855,-1.5886,-1.5883,-1.59,-1.5933,-1.5945,-1.6048,-1.6034,-1.6048,-1.6066,-1.6168,-1.617,-1.6172,-1.6158,-1.6159,-1.6161,0,0,0,0,0,0,-1.5628,-1.5692,-1.5703,-1.5755,-1.5794,-1.5849,-1.5873,-1.5887,-1.5928,-1.5927,-1.5963,-1.5976,-1.6023,-1.605,-1.6033,-1.6112,-1.6109,-1.6114,-1.6093,-1.6095,-1.6096,-1.6089,-1.6045,0,0,0,0,0,-1.5629,-1.5668,-1.5722,-1.5762,-1.5782,-1.5824,-1.5848,-1.5869,-1.5911,-1.5927,-1.5964,-1.6004,-1.6045,-1.6072,-1.6113,-1.6163,-1.6175,-1.6182,-1.6183,-1.6184,-1.6188,-1.6216,-1.622,-1.618,-1.618,-1.618,0,0,-1.5631,-1.5671,-1.5693,-1.5759,-1.5791,-1.5831,-1.5837,-1.5879,-1.5908,-1.5934,-1.5984,-1.6012,-1.6059,-1.6109,-1.6133,-1.6133,-1.6202,-1.6187,-1.6187,-1.6191,-1.6219,-1.6223,-1.6226,-1.6182,-1.6182,-1.6181,0,0,-1.5655,-1.5689,-1.5727,-1.576,-1.5809,-1.5837,-1.5846,-1.59,-1.592,-1.5971,-1.5991,-1.6026,-1.6097,-1.613,-1.6155,-1.6192,-1.6205,-1.6205,-1.6211,-1.6239,-1.6242,-1.6245,-1.6258,-1.6262,-1.6208,-1.6208,-1.6208,0,-1.5651,-1.5711,-1.5744,-1.5784,-1.5812,-1.5838,-1.5876,-1.5906,-1.5967,-1.5985,-1.5984,-1.6074,-1.6107,-1.6166,-1.6175,-1.6195,-1.6206,-1.6198,-1.6239,-1.6242,-1.6245,-1.6258,-1.6263,-1.6208,-1.6208,-1.6208,-1.6208,0,-1.5704,-1.5745,-1.577,-1.5828,-1.5859,-1.5898,-1.5936,-1.5963,-1.5981,-1.6009,-1.6061,-1.6102,-1.6152,-1.6167,-1.6185,-1.6228,-1.6227,-1.6232,-1.6229,-1.6248,-1.626,-1.6266,-1.6207,-1.6207,-1.6207,-1.6208,0,0,-1.5715,-1.5791,-1.5799,-1.5826,-1.5883,-1.5916,-1.5956,-1.6005,-1.6028,-1.6069,-1.6103,-1.6163,-1.6168,-1.6197,-1.6219,-1.6243,-1.6269,-1.6245,-1.6247,-1.6248,-1.632,-1.6315,-1.632,-1.6278,-1.628,-1.628,-1.6315,0,-1.5746,-1.5819,-1.5849,-1.5908,-1.5947,-1.5972,-1.6007,-1.6046,-1.6073,-1.611,-1.614,-1.6181,-1.6185,-1.6203,-1.6228,-1.6261,-1.6284,-1.6259,-1.631,-1.6312,-1.6297,-1.6327,-1.6322,-1.6353,-1.6321,-1.6321,-1.6322,0,-1.5791,-1.5833,-1.5895,-1.5948,-1.5965,-1.5996,-1.6044,-1.6079,-1.6123,-1.6141,-1.6174,-1.6195,-1.6238,-1.6233,-1.6292,-1.6275,-1.6298,-1.6317,-1.6319,-1.6324,-1.6317,-1.6332,-1.6363,-1.6368,-1.633,-1.6329,-1.6329,0,-1.5792,-1.5864,-1.5911,-1.5933,-1.5996,-1.6017,-1.6044,-1.6088,-1.6115,-1.6157,-1.6175,-1.6221,-1.6246,-1.6281,-1.6313,-1.6307,-1.637,-1.6368,-1.6386,-1.6385,-1.6398,-1.6396,-1.6432,-1.6413,-1.6413,-1.6413,-1.6413,0,-1.5823,-1.586,-1.5912,-1.5941,-1.5983,-1.6018,-1.6059,-1.6088,-1.6127,-1.6162,-1.6186,-1.6218,-1.6259,-1.6296,-1.6322,-1.6367,-1.6379,-1.6394,-1.6401,-1.6392,-1.639,-1.6407,-1.6405,-1.6414,-1.6414,-1.6414,-1.6414,0,-1.5831,-1.5867,-1.592,-1.5975,-1.599,-1.6019,-1.6066,-1.6095,-1.6124,-1.6167,-1.6179,-1.6224,-1.6269,-1.6305,-1.6364,-1.6381,-1.6429,-1.6436,-1.6414,-1.6417,-1.6433,-1.6431,-1.6481,-1.6489,-1.6465,-1.6465,-1.6465,0,-1.5848,-1.5877,-1.5936,-1.5961,-1.5988,-1.6028,-1.6056,-1.6092,-1.6121,-1.6174,-1.6196,-1.6243,-1.6282,-1.6353,-1.6391,-1.6436,-1.6444,-1.6459,-1.6451,-1.6441,-1.6444,-1.6442,-1.6445,-1.6459,-1.6459,-1.6459,-1.646,0,-1.5874,-1.589,-1.593,-1.5977,-1.601,-1.6049,-1.6088,-1.6107,-1.615,-1.6181,-1.6227,-1.6258,-1.6318,-1.6364,-1.6413,-1.6441,-1.6457,-1.6462,-1.6468,-1.6459,-1.6445,-1.6453,-1.6416,-1.646,-1.646,-1.646,-1.646,-1.646,-1.5887,-1.5914,-1.5959,-1.6003,-1.6036,-1.6072,-1.6102,-1.6135,-1.6174,-1.6226,-1.6245,-1.6293,-1.6337,-1.6405,-1.6433,-1.6471,-1.6472,-1.6481,-1.6484,-1.6485,-1.6484,-1.644,-1.648,-1.648,-1.648,-1.648,-1.648,0,-1.5913,-1.5944,-1.5984,-1.6038,-1.6072,-1.6085,-1.6129,-1.6157,-1.6199,-1.6239,-1.6277,-1.6331,-1.6376,-1.6417,-1.6464,-1.6487,-1.6495,-1.6498,-1.6496,-1.6502,-1.6481,-1.647,-1.649,-1.649,-1.649,-1.649,-1.649,-1.649,-1.5931,-1.5978,-1.6,-1.6063,-1.6094,-1.6141,-1.6165,-1.6198,-1.623,-1.6289,-1.6326,-1.6353,-1.6394,-1.6444,-1.6486,-1.6497,-1.6513,-1.6514,-1.6527,-1.6505,-1.6504,-1.6502,-1.6493,-1.6517,-1.6517,-1.6545,-1.6545,-1.6546]}]]